Regional Weather Roundup
Issued by NWS Newport/Morehead, NC

Current Version | Previous Version | Graphics & Text | Print | Product List | Glossary Off
Versions: 1 2 3 4 5 6 7 8 9 10 11 12 13 14 15 16 17 18 19 20 21 22 23 24 25 26 27 28 29 30 31 32 33 34 35 36 37 38 39 40 41 42 43 44 45 46 47 48 49 50

000
ASUS42 KMHX 311522
RWRMHX
WEATHER ROUNDUP FOR EASTERN NORTH CAROLINA
NATIONAL WEATHER SERVICE NEWPORT/MOREHEAD CITY NC
1000 AM EST SAT JAN 31 2015

NOTE: "FAIR" INDICATES FEW OR NO CLOUDS BELOW 12,000 FEET
WITH NO SIGNIFICANT WEATHER AND/OR OBSTRUCTIONS TO VISIBILITY

NCZ015>017-031-032-045>047-102-103-311600-
NORTH COAST

CITY           SKY/WX    TMP DP  RH WIND       PRES   REMARKS
EDENTON        SUNNY     32  11  41 N16G24    30.37R
ELIZABETH CITY SUNNY     30   9  41 NW14      30.36R WCI  19
KITTY HAWK     SUNNY     29   9  42 NW14G24   30.31R WCI  19
MANTEO         SUNNY     30   9  40 NW18G28   30.33R WCI  18

$$

NCZ045>047-081-094-103-104-311600-
CENTRAL COAST

CITY           SKY/WX    TMP DP  RH WIND       PRES   REMARKS
FRISCO         SUNNY     33  13  43 N15G25    30.33R
SWANQUARTER    NOT AVBL

$$

NCZ095-097-098-100-101-311600-
SOUTHERN COAST

CITY           SKY/WX    TMP DP  RH WIND       PRES   REMARKS
BEAUFORT       SUNNY     36  15  42 N14G24    30.36R
CEDAR ISLAND   NOT AVBL
JACKSONVILLE   SUNNY     35  11  36 NW10      30.37R
PINEY ISLAND     N/A    N/A N/A N/A MISG      30.35R
WILMINGTON     SUNNY     36   9  32 N13       30.39R


$$

NCZ011>013-027>030-043-044-078>080-089-090>093-098-311600-
COASTAL PLAIN

CITY           SKY/WX    TMP DP  RH WIND       PRES   REMARKS
AHOSKIE        SUNNY     31   9  39 NW6       30.38S
CLINTON        SUNNY     36  11  36 N8        30.39R
ELIZABETHTOWN  SUNNY     37  11  34 N3        30.39S
GOLDSBORO      SUNNY     28  14  54 NW6       30.29R
GREENVILLE     SUNNY     34  10  37 N9        30.37S
HAVELOCK       SUNNY     35  12  38 N14       30.37R
KENANSVILLE    SUNNY     36   8  30 N5        30.39R
KINSTON        SUNNY     34   9  35 N9        30.38R
NEW BERN       SUNNY     36  11  35 NW13      30.37R
RICHLANDS      SUNNY     36   9  32 NW7       30.39R
ROCKY MOUNT    SUNNY     35   8  32 N12       30.37S
WASHINGTON     SUNNY     33  11  40 NW10      30.37R
WHITEVILLE     SUNNY     37   9  32 N6        30.39R

$$

AMZ130-135-150-152-154-156-158-170-250-252-270-ANZ085-086-088-633-658-670-311600-
MARINE OBSERVATIONS

STATION/POSITION TIME  TEMP    WIND        PRES    WAVE   SWELL
                       AIR SEA DIR/SP/G            HT/PER HT/PER
                 (UTC) (F)     (DEG/KT/KT) (MB)    (FT/S) (FT/S)
CHESAPEAKE LIGHT 1500   26     330/ 23/ 25 1027.0
64 E VA BEACH    1500   30 48  330/ 27/ 35 1024.1   10/ 8
DUCK             1500   28 40  330/ 22/ 26 1025.8
2 E DUCK         1500      41                N/A     6/ 8
10 NE DUCK       1500      43                N/A     8/ 8
OREGON INLET     1500   29 40  320/ 18/ 23 1026.9
13E OREGON INLT  1500      45                N/A    10/ 8   2/11
HATTERAS CG      1500   32 40  340/ 23/ 28 1027.3
DIAMOND BUOY     1500   34 61  340/ 27/ 33 1025.5    7/ 6   2/10
17 S OCRACOKE    NOT AVBL
CAPE LOOKOUT     1500   33     340/ 16/ 18 1027.8
BEAUFORT LAB     1500   34 45  350/ 13/ 20 1027.0
27 SE WRIGHTSVLE NOT AVBL
5 SE WRIGHTSVLE  1500   37 51  360/ 14/ 16 1028.6
225 S CAPE HAT   1415   53 69  330/ 21/ 27 1024.4   11/ 9   8/ 9
41 SE CHARLESTON 1500   45 67   20/ 17/ 23 1027.9    6/ 7   2/ 8

$$



USA.gov is the U.S. government's official web portal to all federal, state and local government web resources and services.